Aurora, OR

2:00 AM PDT on July 23, 2017 (GMT -0700)
Aurora State

Weather History for KUAO - October, 2012

Change the Weather History Date:

Wednesday, October 3, 2012

  Actual Average Record
Temperature  
Mean Temperature 58 °F -  
Max Temperature 71 °F - 82 °F (2014)
Min Temperature 46 °F - 39 °F (2005)
Degree Days  
Heating Degree Days 6    
Month to date heating degree days 13  
Since 1 July heating degree days 130  
Cooling Degree Days 0    
Month to date cooling degree days 1  
Year to date cooling degree days 295  
Growing Degree Days 8 (Base 50)    
Moisture  
Dew Point 29 °F    
Average Humidity 47    
Maximum Humidity 76    
Minimum Humidity 18    
Precipitation  
Precipitation 0.00 in - 0.76 in (1998)
Month to date precipitation 0.00  
Year to date precipitation 29.97  
Sea Level Pressure  
Sea Level Pressure 30.18 in    
Wind  
Wind Speed 15 mph (NNE)    
Max Wind Speed 26 mph    
Max Gust Speed 32 mph    
Visibility 10 miles    
Events      
T = Trace of Precipitation, MM = Missing Value Source: NWS Daily Summary

Daily Weather History Graph

Daily Weather History Graph

Search for Another Location

Airport or City:

Trip Planner

Search our weather history database for the weather conditions in past years. The results will help you decide how hot, cold, wet, or windy it might be!

Date:

Astronomy

Oct. 03, 2012 Rise Set
Actual Time 7:12 AM PDT 6:46 PM PDT
Civil Twilight 6:43 AM PDT 7:15 PM PDT
Nautical Twilight 6:08 AM PDT 7:50 PM PDT
Astronomical Twilight 5:34 AM PDT 8:24 PM PDT
Moon 8:30 PM PDT (10/3) 10:52 AM PDT (10/3)
Length of Visible Light 12h 32m
Length of Day
11h 34m
Waning Gibbous, 88% of the Moon is Illuminated
Oct 3
Waning Gibbous
Oct 8
Last Quarter
Oct 15
New
Oct 21
First Quarter
Oct 29
Full

Hourly Weather History & Observations

Time (PDT) Temp. Windchill Dew Point Humidity Pressure Visibility Wind Dir Wind Speed Gust Speed Precip Events Conditions
12:53 AM 46.9 °F - 39.0 °F 74% 30.18 in 10.0 mi North 8.1 mph - N/A   Clear
1:53 AM 46.0 °F 41.9 °F 39.0 °F 76% 30.19 in 10.0 mi North 8.1 mph - N/A   Clear
2:53 AM 48.0 °F - 39.0 °F 71% 30.19 in 10.0 mi North 8.1 mph - N/A   Clear
3:53 AM 46.9 °F - 39.0 °F 74% 30.19 in 10.0 mi North 13.8 mph - N/A   Clear
5:53 AM 50.0 °F - 34.0 °F 54% 30.21 in 10.0 mi NNE 13.8 mph - N/A   Clear
6:53 AM 52.0 °F - 25.0 °F 35% 30.22 in 10.0 mi NNE 12.7 mph - N/A   Clear
7:53 AM 54.0 °F - 21.9 °F 29% 30.23 in 10.0 mi NE 12.7 mph 20.7 mph N/A   Clear
8:53 AM 57.0 °F - 21.9 °F 26% 30.23 in 10.0 mi NE 16.1 mph 23.0 mph N/A   Clear
9:53 AM 60.1 °F - 23.0 °F 24% 30.24 in 10.0 mi NNE 16.1 mph 24.2 mph N/A   Clear
10:53 AM 64.0 °F - 23.0 °F 21% 30.23 in 10.0 mi NE 16.1 mph 23.0 mph N/A   Clear
11:53 AM 66.9 °F - 23.0 °F 19% 30.22 in 10.0 mi NE 19.6 mph 25.3 mph N/A   Clear
12:53 PM 70.0 °F - 24.1 °F 18% 30.20 in 10.0 mi NE 15.0 mph 29.9 mph N/A   Clear
1:53 PM 70.0 °F - 28.9 °F 22% 30.17 in 10.0 mi NE 15.0 mph 21.9 mph N/A   Clear
2:53 PM 70.0 °F - 28.9 °F 22% 30.15 in 10.0 mi North 21.9 mph 27.6 mph N/A   Clear
3:53 PM 70.0 °F - 28.0 °F 21% 30.14 in 10.0 mi North 21.9 mph 29.9 mph N/A   Clear
4:53 PM 69.1 °F - 28.0 °F 22% 30.13 in 10.0 mi NNE 17.3 mph 24.2 mph N/A   Clear
6:53 PM 63.0 °F - 28.0 °F 27% 30.14 in 10.0 mi NNE 13.8 mph - N/A   Clear
7:53 PM 61.0 °F - 27.0 °F 27% 30.14 in 10.0 mi NNE 16.1 mph 20.7 mph N/A   Clear
8:53 PM 60.1 °F - 27.0 °F 28% 30.14 in 10.0 mi NNE 12.7 mph - N/A   Clear
9:53 PM 59.0 °F - 27.0 °F 29% 30.15 in 10.0 mi NNE 10.4 mph - N/A   Clear
10:53 PM 57.9 °F - 28.0 °F 32% 30.15 in 10.0 mi NNE 13.8 mph - N/A   Clear
11:53 PM 55.0 °F - 28.9 °F 37% 30.15 in 10.0 mi North 11.5 mph - N/A   Clear